Regional Weather Roundup
Issued by NWS

Home | Current Version | Previous Version | Text Only | Print | Product List | Glossary On
Versions: 1 2 3 4 5 6 7 8 9 10 11 12 13 14 15 16 17 18 19 20 21 22 23 24 25 26 27 28 29 30 31 32 33 34 35 36 37 38 39 40 41 42 43 44 45 46 47 48 49 50
000
ASUS43 KLMK 251402
RWRKY
KENTUCKY REGIONAL WEATHER ROUNDUP
NATIONAL WEATHER SERVICE LOUISVILLE KY
1000 AM EDT SUN JUN 25 2017

NOTE "FAIR" INDICATES FEW OR NO CLOUDS BELOW 12,000 FEET
WITH NO SIGNIFICANT WEATHER AND/OR OBSTRUCTIONS TO VISIBILITY.

KYZ001>023-026-027-061>063-070>075-251500-
WESTERN AND SOUTH CENTRAL KENTUCKY

CITY           SKY/WX    TMP DP  RH WIND       PRES   REMARKS
PADUCAH        SUNNY     73  54  51 W5        30.22S
HENDERSON      SUNNY     71  58  63 W7        30.22R
OWENSBORO      SUNNY     70  57  63 W9        30.22R
HOPKINSVILLE   SUNNY     71  57  61 NW5       30.24R
BOWLING GREEN  SUNNY     72  58  61 CALM      30.23R
GLASGOW        NOT AVBL
$$

KYZ024-025-028>034-038-045-046-053-251500-
NORTH CENTRAL KENTUCKY

CITY           SKY/WX    TMP DP  RH WIND       PRES   REMARKS
LOUISVILLE/SDF SUNNY     74  50  42 W7        30.19S
LOUISVILLE/LOU SUNNY     72  52  49 SW6       30.20S
FORT KNOX      SUNNY     71  57  60 SW6       30.20R
$$

KYZ035>037-039>044-047>052-055>060-089>105-251500-
NORTHEAST KENTUCKY

CITY           SKY/WX    TMP DP  RH WIND       PRES   REMARKS
LEXINGTON      SUNNY     70  51  51 SW6       30.21S
COVINGTON      SUNNY     69  50  50 W12       30.16S
FRANKFORT      SUNNY     70  52  52 SW8       30.19S
$$

KYZ054-064>069-076>088-106>120-251500-
SOUTHEAST KENTUCKY

CITY           SKY/WX    TMP DP  RH WIND       PRES   REMARKS
JACKSON        SUNNY     68  52  56 VRB3      30.22R
LONDON         SUNNY     70  52  52 NW5       30.23R
SOMERSET       SUNNY     68  54  60 CALM      30.24S
MIDDLESBORO    MOSUNNY   70  58  63 E3        30.22F
MONTICELLO     SUNNY     71  58  63 VRB6      30.25S
$$





USA.gov is the U.S. government's official web portal to all federal, state and local government web resources and services.